AAY1134 KGSP-KSRQ

Flight info

Callsign AAY1134
Flight time 1h 13m
Altitude 38000
Route ELW HONID/N0447F370
Aircraft A319/M-SDE3FGHIRWY/LB1

Departure

Time 2026-04-21 01:31
Airport Greenville-Spartanburg International Airport (KGSP)

Arrival

Time 2026-04-21 02:44
Airport Sarasota Bradenton International Airport (KSRQ)
Time Latitude Longitude Altitude Speed Heading
2026-04-21 01:08 34.88895 -82.21855 982 ft 0 kts
2026-04-21 01:24 34.88886 -82.21856 981 ft 2 kts
2026-04-21 01:24 34.88871 -82.21857 984 ft 2 kts
2026-04-21 01:24 34.88857 -82.21859 981 ft 2 kts 351°
2026-04-21 01:24 34.88843 -82.21854 977 ft 2 kts 285°
2026-04-21 01:25 34.88840 -82.21846 978 ft 0 kts 257°
2026-04-21 01:26 34.88858 -82.21921 980 ft 18 kts 303°
2026-04-21 01:27 34.88925 -82.21982 982 ft 18 kts 343°
2026-04-21 01:27 34.89005 -82.22067 977 ft 17 kts 251°
2026-04-21 01:27 34.88911 -82.22152 979 ft 17 kts 213°
2026-04-21 01:27 34.88777 -82.22255 976 ft 17 kts 211°
2026-04-21 01:28 34.88707 -82.22307 972 ft 18 kts 211°
2026-04-21 01:28 34.88604 -82.22387 974 ft 18 kts 211°
2026-04-21 01:28 34.88496 -82.22466 976 ft 18 kts 211°
2026-04-21 01:28 34.88386 -82.22545 977 ft 19 kts 211°
2026-04-21 01:29 34.88276 -82.22631 970 ft 19 kts 214°
2026-04-21 01:29 34.88245 -82.22756 966 ft 19 kts 301°
2026-04-21 01:29 34.88329 -82.22837 963 ft 8 kts 30°
2026-04-21 01:29 34.88345 -82.22819 965 ft 0 kts 32°
2026-04-21 01:30 34.88346 -82.22819 965 ft 2 kts 32°
2026-04-21 01:30 34.88573 -82.22646 966 ft 77 kts 32°
2026-04-21 01:30 34.89220 -82.22151 962 ft 139 kts 32°
2026-04-21 01:30 34.90166 -82.21426 1135 ft 170 kts 32°
2026-04-21 01:31 34.91146 -82.20662 1848 ft 167 kts 29°
2026-04-21 01:31 34.92119 -82.19902 2561 ft 165 kts 28°
2026-04-21 01:31 34.93106 -82.19179 3157 ft 170 kts 24°
2026-04-21 01:31 34.94316 -82.19060 3405 ft 190 kts 340°
2026-04-21 01:32 34.95367 -82.20153 3652 ft 219 kts 298°
2026-04-21 01:32 34.95562 -82.22061 4046 ft 250 kts 259°
2026-04-21 01:32 34.94666 -82.23981 4791 ft 267 kts 230°
2026-04-21 01:32 34.93284 -82.25502 5801 ft 269 kts 220°
2026-04-21 01:33 34.91795 -82.26856 6796 ft 271 kts 219°
2026-04-21 01:33 34.90266 -82.28219 7712 ft 274 kts 220°
2026-04-21 01:33 34.88734 -82.29638 8573 ft 279 kts 223°
2026-04-21 01:33 34.87205 -82.31123 9445 ft 283 kts 224°
2026-04-21 01:34 34.85676 -82.32666 10287 ft 288 kts 226°
2026-04-21 01:34 34.84103 -82.34302 10688 ft 309 kts 226°
2026-04-21 01:34 34.82412 -82.36092 10979 ft 332 kts 226°
2026-04-21 01:34 34.80641 -82.37965 11606 ft 341 kts 226°
2026-04-21 01:35 34.78832 -82.39868 12355 ft 347 kts 226°
2026-04-21 01:35 34.76991 -82.41804 13060 ft 352 kts 226°
2026-04-21 01:35 34.75122 -82.43771 13790 ft 357 kts 226°
2026-04-21 01:35 34.73224 -82.45761 14463 ft 362 kts 226°
2026-04-21 01:36 34.71302 -82.47771 15111 ft 367 kts 227°
2026-04-21 01:36 34.69360 -82.49804 15763 ft 371 kts 227°
2026-04-21 01:36 34.67396 -82.51867 16403 ft 375 kts 227°
2026-04-21 01:36 34.65416 -82.53945 17049 ft 378 kts 227°
2026-04-21 01:37 34.63409 -82.56048 17693 ft 382 kts 228°
2026-04-21 01:37 34.61383 -82.58171 18344 ft 387 kts 228°
2026-04-21 01:37 34.59330 -82.60316 18913 ft 390 kts 228°
2026-04-21 01:37 34.57264 -82.62475 19466 ft 394 kts 228°
2026-04-21 01:38 34.55177 -82.64657 20053 ft 397 kts 228°
2026-04-21 01:38 34.53077 -82.66845 20642 ft 400 kts 229°
2026-04-21 01:38 34.50990 -82.69019 21173 ft 402 kts 228°
2026-04-21 01:38 34.48831 -82.71272 21762 ft 405 kts 229°
2026-04-21 01:39 34.46714 -82.73476 22320 ft 408 kts 229°
2026-04-21 01:39 34.44552 -82.75723 22843 ft 411 kts 229°
2026-04-21 01:39 34.42329 -82.77930 23374 ft 419 kts 223°
2026-04-21 01:39 34.39794 -82.79770 23818 ft 431 kts 214°
2026-04-21 01:40 34.37091 -82.81398 24237 ft 435 kts 213°
2026-04-21 01:40 34.34375 -82.83025 24670 ft 437 kts 213°
2026-04-21 01:40 34.31639 -82.84655 25106 ft 439 kts 213°
2026-04-21 01:40 34.28895 -82.86289 25543 ft 441 kts 213°
2026-04-21 01:41 34.26139 -82.87936 25947 ft 442 kts 213°
2026-04-21 01:41 34.23385 -82.89592 26402 ft 443 kts 214°
2026-04-21 01:41 34.20619 -82.91257 26834 ft 445 kts 214°
2026-04-21 01:41 34.17843 -82.92921 27261 ft 446 kts 213°
2026-04-21 01:42 34.15056 -82.94589 27674 ft 448 kts 213°
2026-04-21 01:42 34.12257 -82.96262 28096 ft 450 kts 213°
2026-04-21 01:42 34.09445 -82.97936 28497 ft 452 kts 213°
2026-04-21 01:42 34.06618 -82.99620 28885 ft 454 kts 213°
2026-04-21 01:43 34.03786 -83.01310 29269 ft 455 kts 213°
2026-04-21 01:43 34.00982 -83.02983 29605 ft 457 kts 214°
2026-04-21 01:43 33.98126 -83.04684 29996 ft 458 kts 214°
2026-04-21 01:43 33.95264 -83.06388 30350 ft 460 kts 214°
2026-04-21 01:44 33.92386 -83.08096 30647 ft 462 kts 214°
2026-04-21 01:44 33.89501 -83.09810 30937 ft 463 kts 214°
2026-04-21 01:44 33.86606 -83.11535 31227 ft 464 kts 214°
2026-04-21 01:44 33.83710 -83.13257 31574 ft 464 kts 215°
2026-04-21 01:45 33.80810 -83.14965 31996 ft 462 kts 215°
2026-04-21 01:45 33.77920 -83.16664 32389 ft 461 kts 216°
2026-04-21 01:45 33.75045 -83.18353 32762 ft 459 kts 217°
2026-04-21 01:45 33.72192 -83.20041 33215 ft 456 kts 217°
2026-04-21 01:46 33.69358 -83.21718 33674 ft 453 kts 217°
2026-04-21 01:46 33.66540 -83.23384 34126 ft 451 kts 217°
2026-04-21 01:46 33.63733 -83.25043 34510 ft 449 kts 218°
2026-04-21 01:46 33.60939 -83.26695 34852 ft 447 kts 218°
2026-04-21 01:47 33.58150 -83.28349 35175 ft 447 kts 218°
2026-04-21 01:47 33.55363 -83.29995 35461 ft 447 kts 218°
2026-04-21 01:47 33.52610 -83.31611 35745 ft 447 kts 218°
2026-04-21 01:47 33.49818 -83.33243 35979 ft 446 kts 217°
2026-04-21 01:48 33.47034 -83.34864 36325 ft 444 kts 218°
2026-04-21 01:48 33.44265 -83.36488 36609 ft 443 kts 218°
2026-04-21 01:48 33.41497 -83.38118 36869 ft 442 kts 218°
2026-04-21 01:48 33.38737 -83.39742 37117 ft 442 kts 218°
2026-04-21 01:49 33.35973 -83.41361 37363 ft 442 kts 218°
2026-04-21 01:49 33.33210 -83.42981 37602 ft 442 kts 218°
2026-04-21 01:49 33.30452 -83.44600 37823 ft 442 kts 218°
2026-04-21 01:49 33.27686 -83.46223 38040 ft 442 kts 218°
2026-04-21 01:50 33.24919 -83.47846 38230 ft 443 kts 218°
2026-04-21 01:50 33.22150 -83.49458 38281 ft 443 kts 218°
2026-04-21 01:50 33.16610 -83.52666 38276 ft 442 kts 218°
2026-04-21 01:51 33.11117 -83.55863 38278 ft 442 kts 218°
2026-04-21 01:51 33.05588 -83.59067 38277 ft 441 kts 218°
2026-04-21 01:52 32.97314 -83.63888 38263 ft 441 kts 218°
2026-04-21 01:53 32.91815 -83.67080 38283 ft 440 kts 218°
2026-04-21 01:53 32.86300 -83.70261 38290 ft 440 kts 218°
2026-04-21 01:54 32.80792 -83.73448 38291 ft 439 kts 218°
2026-04-21 01:54 32.75291 -83.76626 38290 ft 439 kts 218°
2026-04-21 01:55 32.69828 -83.79785 38264 ft 438 kts 218°
2026-04-21 01:55 32.64344 -83.82936 38318 ft 437 kts 218°
2026-04-21 01:56 32.58862 -83.86084 38328 ft 437 kts 218°
2026-04-21 01:56 32.53387 -83.89219 38327 ft 437 kts 218°
2026-04-21 01:57 32.47918 -83.92358 38313 ft 436 kts 218°
2026-04-21 01:57 32.42455 -83.95486 38292 ft 436 kts 217°
2026-04-21 01:58 32.36996 -83.98601 38301 ft 435 kts 217°
2026-04-21 01:58 32.31577 -84.01692 38285 ft 435 kts 217°
2026-04-21 01:59 32.26128 -84.04799 38289 ft 435 kts 217°
2026-04-21 01:59 32.20686 -84.07905 38242 ft 434 kts 217°
2026-04-21 02:00 32.15240 -84.11000 38256 ft 434 kts 217°
2026-04-21 02:00 32.09790 -84.14090 38277 ft 434 kts 217°
2026-04-21 02:01 32.04348 -84.17172 38286 ft 434 kts 217°
2026-04-21 02:01 31.98902 -84.20256 38289 ft 434 kts 217°
2026-04-21 02:02 31.93469 -84.23335 38245 ft 433 kts 217°
2026-04-21 02:02 31.88033 -84.26407 38264 ft 433 kts 217°
2026-04-21 02:03 31.82633 -84.29453 38266 ft 433 kts 217°
2026-04-21 02:03 31.77191 -84.32510 38284 ft 434 kts 217°
2026-04-21 02:04 31.71746 -84.35571 38293 ft 433 kts 217°
2026-04-21 02:04 31.65908 -84.37852 38266 ft 460 kts 198°
2026-04-21 02:04 31.62656 -84.37996 38291 ft 477 kts 186°
2026-04-21 02:05 31.59329 -84.37320 38313 ft 495 kts 173°
2026-04-21 02:05 31.52747 -84.34666 38302 ft 500 kts 170°
2026-04-21 02:06 31.46175 -84.31983 38317 ft 500 kts 170°
2026-04-21 02:06 31.39596 -84.29325 38309 ft 500 kts 170°
2026-04-21 02:07 31.33082 -84.26698 38290 ft 498 kts 171°
2026-04-21 02:07 31.26530 -84.24066 38306 ft 497 kts 171°
2026-04-21 02:08 31.19986 -84.21428 38311 ft 497 kts 171°
2026-04-21 02:08 31.13448 -84.18799 38310 ft 496 kts 171°
2026-04-21 02:09 31.06919 -84.16178 38303 ft 495 kts 171°
2026-04-21 02:09 31.00415 -84.13560 38312 ft 494 kts 171°
2026-04-21 02:10 30.93918 -84.10958 38307 ft 493 kts 171°
2026-04-21 02:10 30.87434 -84.08379 38318 ft 492 kts 171°
2026-04-21 02:11 30.80956 -84.05795 38292 ft 492 kts 171°
2026-04-21 02:11 30.74490 -84.03204 38318 ft 491 kts 171°
2026-04-21 02:12 30.68037 -84.00626 38315 ft 489 kts 171°
2026-04-21 02:12 30.61639 -83.98085 38311 ft 489 kts 171°
2026-04-21 02:13 30.55203 -83.95541 38303 ft 488 kts 171°
2026-04-21 02:13 30.48778 -83.92993 38304 ft 488 kts 171°
2026-04-21 02:14 30.42348 -83.90444 38298 ft 488 kts 171°
2026-04-21 02:14 30.35918 -83.87906 38292 ft 488 kts 171°
2026-04-21 02:15 30.30568 -83.85792 38294 ft 489 kts 171°
2026-04-21 02:15 30.24126 -83.83242 38273 ft 489 kts 171°
2026-04-21 02:16 30.17689 -83.80717 38293 ft 488 kts 171°
2026-04-21 02:16 30.11251 -83.78193 38302 ft 488 kts 171°
2026-04-21 02:17 30.04816 -83.75666 38306 ft 488 kts 171°
2026-04-21 02:17 29.98388 -83.73142 38307 ft 488 kts 171°
2026-04-21 02:18 29.91966 -83.70620 38293 ft 487 kts 171°
2026-04-21 02:18 29.85582 -83.68127 38305 ft 487 kts 171°
2026-04-21 02:19 29.79171 -83.65630 38307 ft 486 kts 171°
2026-04-21 02:19 29.72764 -83.63129 38307 ft 486 kts 171°
2026-04-21 02:20 29.66359 -83.60632 38267 ft 486 kts 171°
2026-04-21 02:20 29.59944 -83.58136 38275 ft 487 kts 171°
2026-04-21 02:21 29.53519 -83.55631 38283 ft 487 kts 171°
2026-04-21 02:21 29.47094 -83.53143 38306 ft 487 kts 171°
2026-04-21 02:22 29.40659 -83.50656 38293 ft 488 kts 171°
2026-04-21 02:22 29.34256 -83.48181 38263 ft 488 kts 171°
2026-04-21 02:23 29.27806 -83.45696 38275 ft 489 kts 171°
2026-04-21 02:23 29.21349 -83.43201 38286 ft 490 kts 171°
2026-04-21 02:24 29.14886 -83.40704 38291 ft 490 kts 171°
2026-04-21 02:24 29.08425 -83.38224 38237 ft 490 kts 171°
2026-04-21 02:25 29.02011 -83.35757 38286 ft 489 kts 171°
2026-04-21 02:25 28.95577 -83.33284 38290 ft 488 kts 171°
2026-04-21 02:26 28.89136 -83.30826 37641 ft 492 kts 171°
2026-04-21 02:26 28.85863 -83.29583 36710 ft 497 kts 170°
2026-04-21 02:26 28.82583 -83.28331 35959 ft 497 kts 170°
2026-04-21 02:26 28.79302 -83.27074 35274 ft 496 kts 170°
2026-04-21 02:27 28.76030 -83.25817 34576 ft 495 kts 169°
2026-04-21 02:27 28.72772 -83.24564 33803 ft 494 kts 169°
2026-04-21 02:27 28.69516 -83.23317 32898 ft 494 kts 169°
2026-04-21 02:27 28.66247 -83.22072 32002 ft 496 kts 169°
2026-04-21 02:28 28.62980 -83.20827 31210 ft 494 kts 168°
2026-04-21 02:28 28.59720 -83.19585 30397 ft 494 kts 168°
2026-04-21 02:28 28.56518 -83.18363 29583 ft 491 kts 168°
2026-04-21 02:28 28.53292 -83.17130 28813 ft 487 kts 168°
2026-04-21 02:29 28.50092 -83.15911 28077 ft 482 kts 168°
2026-04-21 02:29 28.46930 -83.14714 27382 ft 476 kts 167°
2026-04-21 02:29 28.43801 -83.13531 26740 ft 471 kts 167°
2026-04-21 02:29 28.40695 -83.12356 26076 ft 467 kts 167°
2026-04-21 02:30 28.37619 -83.11191 25413 ft 463 kts 167°
2026-04-21 02:30 28.34568 -83.10032 24762 ft 460 kts 166°
2026-04-21 02:30 28.31542 -83.08884 24121 ft 457 kts 166°
2026-04-21 02:30 28.28529 -83.07744 23438 ft 455 kts 166°
2026-04-21 02:31 28.25543 -83.06616 22776 ft 451 kts 166°
2026-04-21 02:31 28.22619 -83.05512 22178 ft 447 kts 166°
2026-04-21 02:31 28.19684 -83.04400 21617 ft 442 kts 165°
2026-04-21 02:31 28.16777 -83.03298 21047 ft 438 kts 165°
2026-04-21 02:32 28.13895 -83.02205 20534 ft 435 kts 165°
2026-04-21 02:32 28.11039 -83.01127 20036 ft 431 kts 165°
2026-04-21 02:32 28.08201 -83.00061 19564 ft 428 kts 165°
2026-04-21 02:32 28.05384 -82.99004 19101 ft 424 kts 164°
2026-04-21 02:33 28.02594 -82.97955 18636 ft 421 kts 164°
2026-04-21 02:33 27.99818 -82.96909 18111 ft 418 kts 164°
2026-04-21 02:33 27.97073 -82.95875 17599 ft 414 kts 164°
2026-04-21 02:33 27.94345 -82.94850 17090 ft 411 kts 163°
2026-04-21 02:34 27.91649 -82.93838 16587 ft 407 kts 163°
2026-04-21 02:34 27.88973 -82.92833 16098 ft 403 kts 163°
2026-04-21 02:34 27.86323 -82.91837 15561 ft 400 kts 164°
2026-04-21 02:34 27.83691 -82.90849 15062 ft 397 kts 163°
2026-04-21 02:35 27.81087 -82.89871 14604 ft 392 kts 163°
2026-04-21 02:35 27.78504 -82.88900 14070 ft 390 kts 163°
2026-04-21 02:35 27.75928 -82.87936 13442 ft 389 kts 162°
2026-04-21 02:35 27.73372 -82.86980 12910 ft 385 kts 162°
2026-04-21 02:36 27.70882 -82.86050 12388 ft 380 kts 162°
2026-04-21 02:36 27.68375 -82.85112 11783 ft 379 kts 162°
2026-04-21 02:36 27.65884 -82.84179 11289 ft 374 kts 161°
2026-04-21 02:36 27.63465 -82.83275 11163 ft 358 kts 161°
2026-04-21 02:37 27.61145 -82.82409 11049 ft 344 kts 161°
2026-04-21 02:37 27.58915 -82.81578 10926 ft 332 kts 161°
2026-04-21 02:37 27.56754 -82.80774 10754 ft 322 kts 161°
2026-04-21 02:37 27.54642 -82.79990 10470 ft 317 kts 161°
2026-04-21 02:38 27.52555 -82.79215 10159 ft 314 kts 161°
2026-04-21 02:38 27.50495 -82.78447 9744 ft 312 kts 161°
2026-04-21 02:38 27.48439 -82.77678 9378 ft 310 kts 160°
2026-04-21 02:38 27.46399 -82.76916 8981 ft 308 kts 160°
2026-04-21 02:39 27.44372 -82.76160 8613 ft 305 kts 160°
2026-04-21 02:39 27.42340 -82.75405 7903 ft 313 kts 160°
2026-04-21 02:39 27.40232 -82.74619 7091 ft 325 kts 160°
2026-04-21 02:39 27.38050 -82.73804 6241 ft 335 kts 160°
2026-04-21 02:40 27.35808 -82.72967 5459 ft 341 kts 160°
2026-04-21 02:40 27.33576 -82.72140 4984 ft 332 kts 160°
2026-04-21 02:40 27.31467 -82.71366 4565 ft 314 kts 159°
2026-04-21 02:40 27.29464 -82.70574 4167 ft 295 kts 150°
2026-04-21 02:41 27.28021 -82.69145 3811 ft 266 kts 116°
2026-04-21 02:41 27.27599 -82.67249 3452 ft 243 kts 84°
2026-04-21 02:41 27.28119 -82.65522 3025 ft 230 kts 55°
2026-04-21 02:41 27.29252 -82.64321 2644 ft 220 kts 39°
2026-04-21 02:42 27.30436 -82.63294 2277 ft 210 kts 41°
2026-04-21 02:42 27.31567 -82.62310 1931 ft 202 kts 41°
2026-04-21 02:42 27.32649 -82.61362 1598 ft 192 kts 39°
2026-04-21 02:42 27.33673 -82.60465 1442 ft 181 kts 40°
2026-04-21 02:43 27.34644 -82.59611 1168 ft 174 kts 39°
2026-04-21 02:43 27.35586 -82.58782 928 ft 169 kts 39°
2026-04-21 02:43 27.36507 -82.57971 709 ft 167 kts 39°
2026-04-21 02:43 27.37407 -82.57177 491 ft 157 kts 37°
2026-04-21 02:44 27.38200 -82.56481 285 ft 135 kts 40°
2026-04-21 02:44 27.38907 -82.55846 96 ft 127 kts 37°
2026-04-21 02:44 27.39560 -82.55272 30 ft 103 kts 38°
2026-04-21 02:44 27.39887 -82.54983 32 ft 29 kts 38°
2026-04-21 02:45 27.40036 -82.54851 33 ft 26 kts 43°
2026-04-21 02:45 27.40025 -82.54780 32 ft 6 kts 196°
2026-04-21 02:45 27.39967 -82.54784 31 ft 10 kts 182°
2026-04-21 02:45 27.39901 -82.54815 31 ft 12 kts 227°
2026-04-21 02:46 27.39835 -82.54876 31 ft 13 kts 217°
2026-04-21 02:46 27.39762 -82.54939 31 ft 14 kts 219°
2026-04-21 02:46 27.39684 -82.55010 31 ft 15 kts 219°